To NAV CANADA Home Page Login to a new session Search on AWWS site Feedback and Comments Disclaimer Vers la page française équivalente Tips FAQ What's new on the site To the Forecasts and Observations / NOTAM section To "File a Flight Plan" website Publications and other links Update of the User's profile FIC Telephone Numbers My Weather Data Folder Route Weather Data Regional Weather Data Local Weather Data To the Forecasts and Observations / NOTAM section
Request Generated 05/23/2015 at 10:13:21 UTC . Weather information available at that time is displayed.

METAR/TAF

OLD CROW/YT    

LWIS CYOC 231000Z AUTO 01016G22KT 08/03 A3020=
LWIS CYOC 230900Z AUTO 02019G27KT 08/03 A3019=
LWIS CYOC 230800Z AUTO 03021G27KT 08/03 A3019=

*** REMARK        : Forecast period has ended; this was the last TAF issued
*** REMARQUE : La période de prévision est échue; ceci était le dernier TAF qui a été émis
TAF CYOC 221738Z 2218/2301 24010G20KT P6SM FEW040 SCT200
RMK NXT FCST WILL BE ISSUED AT 231445Z=
Your time UTC time
Weather data provided by Environment Canada and NAV CANADA